Location: Sungai Apap
(2.6167°N, 113.3833°E)
Time: 16:38:33
(UTC+00:00)

Resurs 01 Rocket - Pass Details

Date: 25 May 2024
Orbit: 630 x 641 km, 97.8° (Epoch: 11 June)

Event Time Altitude Azimuth Distance (km) Brightness Sun altitude
Exits shadow 12:14:47 12° 28° (NNE) 1,880 4.0 -24.7°
Drops below altitude 10° 12:15:14 10° 24° (NNE) 2,023 4.2 -24.8°
Sets 12:17:46 0° 10° (N) 2,929 5.2 -25.4°
